• In Uzbekistan
  • List of Countries
  • For 7 days
  • Water Temperature
  • Satellite Maps
  • Weather Map
  • Weather Widgets
  • user-avatar
    Login

    Hourly Weather Crete

    Today, 21 November, Tuesday

    Time Temperature Precipitation Wind Pressure Humidity
    00:00 +10°C° 0 mm 7 mps 708 mmHg 61%
    01:00 +9°C° 0 mm 7 mps 709 mmHg 59%
    02:00 +9°C° 0 mm 7 mps 709 mmHg 59%
    03:00 +9°C° 0 mm 7 mps 709 mmHg 58%
    04:00 +8°C° 0 mm 7 mps 709 mmHg 57%
    05:00 +8°C° 0 mm 6 mps 709 mmHg 56%
    06:00 +8°C° 0 mm 6 mps 710 mmHg 54%
    07:00 +8°C° 0 mm 6 mps 710 mmHg 53%
    08:00 +8°C° 0 mm 6 mps 710 mmHg 52%
    09:00 +9°C° 0 mm 5 mps 711 mmHg 49%
    10:00 +10°C° 0 mm 5 mps 711 mmHg 46%
    11:00 +12°C° 0 mm 5 mps 712 mmHg 43%
    12:00 +12°C° 0 mm 5 mps 712 mmHg 42%
    13:00 +12°C° 0 mm 5 mps 712 mmHg 41%
    14:00 +12°C° 0 mm 5 mps 712 mmHg 40%
    15:00 +12°C° 0 mm 4 mps 712 mmHg 42%
    16:00 +11°C° 0 mm 4 mps 712 mmHg 44%
    17:00 +11°C° 0 mm 4 mps 712 mmHg 46%
    18:00 +10°C° 0 mm 3 mps 712 mmHg 48%
    19:00 +10°C° 0 mm 3 mps 712 mmHg 51%
    20:00 +9°C° 0 mm 3 mps 712 mmHg 53%
    21:00 +9°C° 0 mm 3 mps 712 mmHg 54%
    22:00 +9°C° 0 mm 2 mps 712 mmHg 55%
    23:00 +9°C° 0 mm 2 mps 712 mmHg 55%

    Tomorrow, 22 November, Wednesday

    Time Temperature Precipitation Wind Pressure Humidity
    00:00 +9°C° 0 mm 2 mps 712 mmHg 56%
    01:00 +8°C° 0 mm 2 mps 712 mmHg 56%
    02:00 +8°C° 0 mm 2 mps 712 mmHg 56%
    03:00 +8°C° 0 mm 2 mps 712 mmHg 56%
    04:00 +8°C° 0 mm 2 mps 712 mmHg 56%
    05:00 +8°C° 0 mm 2 mps 712 mmHg 55%
    06:00 +8°C° 0 mm 2 mps 712 mmHg 53%
    07:00 +9°C° 0 mm 2 mps 712 mmHg 51%
    08:00 +9°C° 0 mm 2 mps 712 mmHg 49%
    09:00 +10°C° 0 mm 2 mps 712 mmHg 42%
    10:00 +13°C° 0 mm 2 mps 713 mmHg 35%
    11:00 +14°C° 0 mm 1 mps 713 mmHg 28%
    12:00 +15°C° 0 mm 1 mps 713 mmHg 28%
    13:00 +15°C° 0 mm 2 mps 713 mmHg 29%
    14:00 +16°C° 0 mm 2 mps 712 mmHg 29%
    15:00 +15°C° 0 mm 2 mps 712 mmHg 34%
    16:00 +15°C° 0 mm 2 mps 712 mmHg 38%
    17:00 +14°C° 0 mm 2 mps 712 mmHg 43%
    18:00 +14°C° 0 mm 2 mps 712 mmHg 47%
    19:00 +13°C° 0 mm 1 mps 712 mmHg 51%
    20:00 +12°C° 0 mm 1 mps 712 mmHg 55%
    21:00 +12°C° 0 mm 1 mps 712 mmHg 56%
    22:00 +12°C° 0 mm 2 mps 713 mmHg 57%
    23:00 +12°C° 0 mm 2 mps 713 mmHg 57%

    Day after tomorrow, 23 November, Thursday

    Time Temperature Precipitation Wind Pressure Humidity
    00:00 +12°C° 0 mm 2 mps 712 mmHg 59%
    01:00 +10°C° 0 mm 2 mps 712 mmHg 61%
    02:00 +10°C° 0 mm 2 mps 712 mmHg 63%
    03:00 +10°C° 0 mm 2 mps 712 mmHg 65%
    04:00 +10°C° 0 mm 2 mps 712 mmHg 66%
    05:00 +9°C° 0 mm 2 mps 711 mmHg 68%
    06:00 +10°C° 0 mm 2 mps 712 mmHg 67%
    07:00 +10°C° 0 mm 2 mps 712 mmHg 66%
    08:00 +12°C° 0 mm 2 mps 712 mmHg 66%
    09:00 +13°C° 0 mm 2 mps 713 mmHg 58%
    10:00 +14°C° 0 mm 1 mps 713 mmHg 51%
    11:00 +16°C° 0 mm 1 mps 713 mmHg 44%
    12:00 +16°C° 0 mm 1 mps 713 mmHg 43%
    13:00 +17°C° 0 mm 2 mps 713 mmHg 42%
    14:00 +17°C° 0 mm 2 mps 713 mmHg 41%
    15:00 +16°C° 0 mm 2 mps 712 mmHg 45%
    16:00 +16°C° 0 mm 1 mps 712 mmHg 50%
    17:00 +15°C° 0 mm 1 mps 712 mmHg 54%
    18:00 +15°C° 0 mm 1 mps 713 mmHg 56%
    19:00 +14°C° 0 mm 1 mps 713 mmHg 57%
    20:00 +13°C° 0 mm 1 mps 713 mmHg 58%
    21:00 +13°C° 0 mm 1 mps 713 mmHg 59%
    22:00 +13°C° 0 mm 1 mps 713 mmHg 60%
    23:00 +12°C° 0 mm 1 mps 713 mmHg 61%

    24 November, Friday

    Time Temperature Precipitation Wind Pressure Humidity
    00:00 +12°C° 0 mm 1 mps 713 mmHg 62%
    01:00 +12°C° 0 mm 2 mps 713 mmHg 63%
    02:00 +12°C° 0 mm 2 mps 713 mmHg 63%
    03:00 +12°C° 0 mm 2 mps 713 mmHg 63%
    04:00 +12°C° 0 mm 2 mps 713 mmHg 63%
    05:00 +10°C° 0 mm 2 mps 712 mmHg 63%
    06:00 +12°C° 0 mm 2 mps 713 mmHg 62%
    07:00 +12°C° 0 mm 2 mps 713 mmHg 61%
    08:00 +12°C° 0 mm 1 mps 713 mmHg 61%
    09:00 +14°C° 0 mm 1 mps 713 mmHg 54%
    10:00 +15°C° 0 mm 1 mps 713 mmHg 48%
    11:00 +18°C° 0 mm 1 mps 714 mmHg 41%
    12:00 +18°C° 0 mm 1 mps 713 mmHg 41%
    13:00 +18°C° 0 mm 1 mps 713 mmHg 41%
    14:00 +18°C° 0 mm 2 mps 713 mmHg 40%
    15:00 +17°C° 0 mm 2 mps 713 mmHg 46%
    16:00 +16°C° 0 mm 2 mps 713 mmHg 52%
    17:00 +15°C° 0 mm 2 mps 713 mmHg 58%
    18:00 +15°C° 0 mm 2 mps 713 mmHg 60%
    19:00 +14°C° 0 mm 2 mps 713 mmHg 63%
    20:00 +14°C° 0 mm 2 mps 713 mmHg 66%
    21:00 +13°C° 0 mm 2 mps 713 mmHg 69%
    22:00 +13°C° 0 mm 2 mps 714 mmHg 72%
    23:00 +13°C° 0 mm 2 mps 714 mmHg 75%

    25 November, Saturday

    Time Temperature Precipitation Wind Pressure Humidity
    00:00 +13°C° 0 mm 2 mps 713 mmHg 75%
    01:00 +12°C° 0 mm 2 mps 713 mmHg 76%
    02:00 +12°C° 0 mm 2 mps 713 mmHg 77%
    03:00 +12°C° 0 mm 2 mps 713 mmHg 75%
    04:00 +12°C° 0 mm 2 mps 713 mmHg 73%
    05:00 +11°C° 0 mm 3 mps 713 mmHg 71%
    06:00 +11°C° 0 mm 3 mps 713 mmHg 69%
    07:00 +12°C° 0 mm 2 mps 713 mmHg 68%
    08:00 +12°C° 0 mm 2 mps 714 mmHg 67%
    09:00 +14°C° 0 mm 2 mps 714 mmHg 59%
    10:00 +15°C° 0 mm 2 mps 714 mmHg 52%
    11:00 +16°C° 0 mm 2 mps 714 mmHg 45%
    12:00 +16°C° 0 mm 2 mps 714 mmHg 45%
    13:00 +17°C° 0 mm 2 mps 714 mmHg 44%
    14:00 +17°C° 0 mm 2 mps 714 mmHg 44%
    15:00 +16°C° 0 mm 2 mps 714 mmHg 48%
    16:00 +16°C° 0 mm 2 mps 714 mmHg 51%
    17:00 +14°C° 0 mm 3 mps 714 mmHg 55%
    18:00 +13°C° 0 mm 3 mps 714 mmHg 59%
    19:00 +13°C° 0 mm 3 mps 714 mmHg 64%
    20:00 +12°C° 0 mm 3 mps 715 mmHg 69%
    21:00 +12°C° 0 mm 3 mps 715 mmHg 69%
    22:00 +11°C° 0 mm 3 mps 715 mmHg 69%
    23:00 +11°C° 0 mm 3 mps 715 mmHg 69%

    26 November, Sunday

    Time Temperature Precipitation Wind Pressure Humidity
    00:00 +11°C° 0 mm 3 mps 715 mmHg 71%
    01:00 +11°C° 0 mm 3 mps 715 mmHg 72%
    02:00 +10°C° 0 mm 3 mps 715 mmHg 74%
    03:00 +10°C° 0 mm 3 mps 715 mmHg 75%
    04:00 +10°C° 0 mm 3 mps 715 mmHg 76%
    05:00 +10°C° 0 mm 3 mps 715 mmHg 78%
    06:00 +10°C° 0 mm 3 mps 715 mmHg 77%
    07:00 +10°C° 0 mm 3 mps 715 mmHg 76%
    08:00 +10°C° 0 mm 3 mps 715 mmHg 75%
    09:00 +12°C° 0 mm 3 mps 715 mmHg 67%
    10:00 +13°C° 0 mm 3 mps 716 mmHg 58%
    11:00 +14°C° 0 mm 3 mps 716 mmHg 50%
    12:00 +16°C° 0 mm 2 mps 715 mmHg 48%
    13:00 +16°C° 0 mm 2 mps 715 mmHg 47%
    14:00 +16°C° 0 mm 2 mps 715 mmHg 45%
    15:00 +16°C° 0 mm 2 mps 715 mmHg 49%
    16:00 +15°C° 0 mm 2 mps 715 mmHg 52%
    17:00 +15°C° 0 mm 2 mps 715 mmHg 56%
    18:00 +14°C° 0 mm 2 mps 715 mmHg 61%
    19:00 +13°C° 0 mm 2 mps 715 mmHg 66%
    20:00 +12°C° 0 mm 2 mps 715 mmHg 71%
    21:00 +12°C° 0 mm 2 mps 715 mmHg 71%
    22:00 +12°C° 0 mm 2 mps 715 mmHg 72%
    23:00 +10°C° 0 mm 2 mps 715 mmHg 73%
    Show more